This is the latest recevied weather packets stored in our database for station/object K4KMJ. If no packets are shown the sender has not sent any weather packets the latest 10 day(s).
| Time | Temp. | Humidity | Pressure | Rain* | Wind** | Luminosity | Snow |
|---|---|---|---|---|---|---|---|
| 1778001954 | 27.22° C | 61% | 1018.4 hPa | 0 mm | - | 1054 W/m² | - |
| 1778001651 | 26.67° C | 61% | 1018.7 hPa | 0 mm | - | 418 W/m² | - |
| 1778001346 | 27.22° C | 61% | 1018.6 hPa | 0 mm | - | 1086 W/m² | - |
| 1778001042 | 27.22° C | 62% | 1018.6 hPa | 0 mm | - | 1093 W/m² | - |
| 1778000734 | 26.67° C | 62% | 1018.7 hPa | 0 mm | - | 332 W/m² | - |
| 1778000430 | 26.67° C | 62% | 1018.7 hPa | 0 mm | - | 337 W/m² | - |
| 1778000126 | 26.67° C | 62% | 1018.6 hPa | 0 mm | - | 401 W/m² | - |
| 1777999821 | 26.67° C | 62% | 1018.8 hPa | 0 mm | - | 345 W/m² | - |
| 1777999517 | 26.67° C | 61% | 1018.8 hPa | 0 mm | - | 1133 W/m² | - |
| 1777999215 | 27.22° C | 62% | 1018.6 hPa | 0 mm | - | 384 W/m² | - |
| 1777998914 | 26.67° C | 61% | 1018.6 hPa | 0 mm | - | 288 W/m² | - |
| 1777998610 | 26.67° C | 61% | 1018.8 hPa | 0 mm | - | 334 W/m² | - |
| 1777998304 | 26.67° C | 61% | 1018.5 hPa | 0 mm | - | 541 W/m² | - |
| 1777998001 | 26.67° C | 61% | 1018.7 hPa | 0 mm | - | 577 W/m² | - |
| 1777997697 | 26.67° C | 61% | 1018.8 hPa | 0 mm | - | 1151 W/m² | - |
| 1777997394 | 27.78° C | 62% | 1018.7 hPa | 0 mm | - | 1043 W/m² | - |
| 1777997092 | 27.22° C | 62% | 1018.5 hPa | 0 mm | - | 966 W/m² | - |
| 1777996789 | 26.67° C | 62% | 1018.8 hPa | 0 mm | - | 850 W/m² | - |
| 1777996485 | 26.67° C | 63% | 1018.8 hPa | 0 mm | - | 982 W/m² | - |
| 1777996182 | 26.67° C | 63% | 1018.9 hPa | 0 mm | - | 917 W/m² | - |
| 1777995878 | 26.67° C | 63% | 1018.7 hPa | 0 mm | - | 934 W/m² | - |
| 1777995574 | 27.22° C | 64% | 1018.8 hPa | 0 mm | - | 905 W/m² | - |
| 1777995272 | 26.67° C | 65% | 1018.9 hPa | 0 mm | - | 842 W/m² | - |
| 1777994969 | 26.11° C | 65% | 1018.7 hPa | 0 mm | - | 875 W/m² | - |
| 1777994666 | 26.11° C | 67% | 1018.9 hPa | 0 mm | - | 859 W/m² | - |
* Rain latest hour (hover to see other rain measurements)
** Current wind speed in m/s (hover to see current wind gust speed)